Regional Weather Roundup
Issued by NWS

Home | Current Version | Previous Version | Text Only | Print | Product List | Glossary Off
Versions: 1 2 3 4 5 6 7 8 9 10 11 12 13 14 15 16 17 18 19 20 21 22 23 24 25 26 27 28 29 30 31 32 33 34 35 36 37 38 39 40 41 42 43 44 45 46 47 48 49 50

000
ASUS43 KDTX 040701
RWRMI
MICHIGAN HOURLY REGIONAL WEATHER ROUNDUP
NATIONAL WEATHER SERVICE DETROIT/PONTIAC MI
200 AM EST WED MAR 04 2015

NOTE: "FAIR" INDICATES FEW OR NO CLOUDS BELOW 12,000 FEET WITH NO
SIGNIFICANT WEATHER AND/OR OBSTRUCTION TO VISIBILITY.

MIZ047>049-052>055-059>063-066>070-074>076-081>083-040800-
SOUTHEAST LOWER MICHIGAN

CITY           SKY/WX    TMP DP  RH WIND       PRES   REMARKS
ADRIAN         CLOUDY    33  25  72 NW12      29.83R WCI  24
ALMA           CLOUDY    28  23  81 W8        29.79R WCI  20
ANN ARBOR      CLOUDY    32  24  72 NW13      29.82R WCI  22
BAD AXE        CLOUDY    27  22  82 W7        29.76R WCI  19
CARO           MOCLDY    28  22  77 W8        29.77R WCI  20
DETROIT CITY   CLOUDY    35  23  61 W7        29.81R WCI  29
DETROIT        CLOUDY    34  25  69 W12       29.82R WCI  25
FLINT          CLOUDY    30  21  69 W13       29.80R WCI  20
GROSSE ILE     CLOUDY    36  27  69 W7        29.80R WCI  30
HILLSDALE      CLOUDY    31  26  79 NW12      29.81R WCI  22
HOWELL         CLOUDY    29  23  76 W9G18     29.80R WCI  21

CITY           SKY/WX    TMP DP  RH WIND       PRES   REMARKS
JACKSON        CLOUDY    30  23  75 NW9       29.81R WCI  22
LAMBERTVILLE   CLOUDY    36  30  80 W6        29.83R WCI  31
LANSING        CLOUDY    29  22  75 W10       29.81R WCI  20
LAPEER         CLOUDY    29  22  74 W9G16     29.79R WCI  21
MASON          CLOUDY    29  22  76 W12       29.81R WCI  19
MONROE         CLOUDY    36  27  69 W13       29.80R WCI  27
MT. CLEMENS    CLOUDY    32  23  70 W5        29.78R WCI  27
PONTIAC        CLOUDY    29  22  75 W17       29.78R WCI  17
PORT HOPE        N/A     28  20  71 VRB7      29.72R WCI  21
PORT HURON     CLOUDY    30  23  74 W8        29.79R WCI  23
TRI CITIES     MOCLDY    28  20  71 W12       29.77R WCI  18
TROY           CLOUDY    33  24  68 W10G17    29.82R WCI  25
SAGINAW HB     MOCLDY    28  23  80 W8        29.78R WCI  20
$$
MIZ043>046-050>051-056>058-064>065-071>073-077>080-040800-
SOUTHWEST LOWER MICHIGAN

CITY           SKY/WX    TMP DP  RH WIND       PRES   REMARKS
BATTLE CREEK   CLOUDY    31  23  72 W8        29.82R WCI  23
BENTON HARBOR  CLOUDY    30  25  81 W8        29.86R WCI  22
BIG RAPIDS     CLOUDY    28  24  86 W10       29.76R WCI  18
COLDWATER      CLOUDY    31  24  76 W7        29.84R WCI  24
FREMONT        CLOUDY    29  22  75 W7        29.80R WCI  22
HOLLAND        CLOUDY    31  23  72 W8        29.83R WCI  23
GRAND RAPIDS   CLOUDY    29  22  75 W9        29.81R WCI  20
IONIA          CLOUDY    30  23  76 W7        29.79R WCI  23
KALAMAZOO        N/A    N/A N/A N/A MISG      29.83R
LUDINGTON      CLOUDY    31  19  62 NW12G17   29.79R WCI  21
MARSHALL       CLOUDY    30  23  77 W12G17    29.82R WCI  20
MOUNT PLEASANT CLOUDY    28  23  82 SW7       29.76S WCI  20
MUSKEGON       CLOUDY    31  21  66 W13       29.82R WCI  21
SOUTH HAVEN    CLOUDY    32  26  78 W5        29.84R WCI  27
$$
MIZ016>042-040800-
NORTHERN LOWER MICHIGAN

CITY           SKY/WX    TMP DP  RH WIND       PRES   REMARKS
ALPENA         CLOUDY    25  20  81 W7        29.69R WCI  17
BEAVER ISLAND  FLURRIES  20  15  79 NW9       29.73R WCI  10
BELLAIRE       FLURRIES  27  20  76 W8        29.74R WCI  19
CADILLAC       MOCLDY    23  20  87 W7        29.70R WCI  15
CHARLEVOIX     MOCLDY    23  17  77 NW13G26   29.75R WCI  11
FRANKFORT      CLOUDY    28  19  71 NW10      29.77R WCI  18
GAYLORD        CLOUDY    24  20  84 W16G22    29.66R WCI  11
GRAYLING       FAIR      23  21  93 W7        29.69R WCI  15
HARBOR SPRINGS LGT SNOW  23  18  80 NW9G17    29.71R WCI  13
HOUGHTON LAKE  CLEAR     21  17  84 W5        29.70R WCI  15
MANISTEE       CLOUDY    28  18  64 W22       29.77R WCI  15
OSCODA         CLOUDY    25  22  89 SW7       29.70R WCI  17
PELLSTON       CLOUDY    21  12  68 NW18G24   29.72R WCI   6
ROGERS CITY    FLURRIES  26  22  85 W6        29.68R WCI  19
TRAVERSE CITY  FLURRIES  26  20  77 W9        29.73R WCI  17
$$
MIZ007>008-015-040800-
EASTERN UPPER MICHIGAN

CITY           SKY/WX    TMP DP  RH WIND       PRES   REMARKS
KINROSS        CLOUDY    19  18  93 W13       29.66R WCI   7
MACKINAC ISLAN CLOUDY    20  13  73 NW10G18   29.68R WCI   8
NEWBERRY       CLOUDY    17  10  75 W21G29    29.69R WCI   0
S. S. MARIE    LGT SNOW  18  10  71 NW16G35   29.65R WCI   3
$$
MIZ004>006-011>014-085-040800-
CENTRAL UPPER MICHIGAN

CITY           SKY/WX    TMP DP  RH WIND       PRES   REMARKS
MANISTIQUE     FLURRIES  20  14  77 NW7       29.72R WCI  11
ESCANABA       CLEAR     18   9  68 W6        29.76R WCI   9
MENOMINEE      CLEAR     19   9  63 NW5       29.78R WCI  13
SAWYER-GWINN   CLEAR     13   5  70 NW7       29.70R WCI   3
$$
MIZ001>003-009>011-084-040800-
WESTERN UPPER MICHIGAN

CITY           SKY/WX    TMP DP  RH WIND       PRES   REMARKS
IRON MOUNTAIN  MOCLDY    16   4  59 W12       29.73R WCI   3
HOUGHTON       MIX PCPN   8   0  69 NW31G38   29.71R WCI -15
COPPER HARBOR    N/A     11   2  67 N18G32    29.72R WCI  -7
IRONWOOD       CLOUDY     7  -4  61 W15G23    29.80R WCI -11
$$

ABBREVIATIONS USED IN REMARKS
   TC - TEMPERATURE IN CELSIUS
  WCI - WIND CHILL INDEX
   HX - HEAT INDEX
  VSB - VISIBILITY



USA.gov is the U.S. government's official web portal to all federal, state and local government web resources and services.